TimeIST,TemperatureF,Dew PointF,Humidity,Sea Level PressureIn,VisibilityMPH,Wind Direction,Wind SpeedMPH,Gust SpeedMPH,PrecipitationIn,Events,Conditions,WindDirDegrees,DateUTC
12:00 AM,59.0,51.8,77,30.04,-9999.0,Calm,Calm,-,N/A,,Mist,0,2012-11-19 18:30:00
12:30 AM,59.0,51.8,77,30.04,-9999.0,Calm,Calm,-,N/A,,Mist,0,2012-11-19 19:00:00
1:00 AM,59.0,51.8,77,30.04,-9999.0,Calm,Calm,-,N/A,,Mist,0,2012-11-19 19:30:00
1:30 AM,59.0,51.8,77,30.04,-9999.0,Calm,Calm,-,N/A,,Mist,0,2012-11-19 20:00:00
2:00 AM,59.0,51.8,77,30.01,-9999.0,Calm,Calm,-,N/A,,Mist,0,2012-11-19 20:30:00
2:30 AM,55.4,50.0,82,30.01,1.9,Calm,Calm,-,N/A,,Mist,0,2012-11-19 21:00:00
3:00 AM,55.4,50.0,82,30.01,1.9,Calm,Calm,-,N/A,,Mist,0,2012-11-19 21:30:00
3:30 AM,55.4,50.0,82,30.01,1.9,Calm,Calm,-,N/A,,Mist,0,2012-11-19 22:00:00
4:00 AM,55.4,50.0,82,30.01,1.9,Calm,Calm,-,N/A,,Mist,0,2012-11-19 22:30:00
4:30 AM,55.4,50.0,82,30.01,1.9,Calm,Calm,-,N/A,,Mist,0,2012-11-19 23:00:00
5:00 AM,55.4,50.0,82,30.01,1.9,Calm,Calm,-,N/A,,Mist,0,2012-11-19 23:30:00
5:30 AM,55.4,50.0,82,30.01,1.9,Calm,Calm,-,N/A,,Mist,0,2012-11-20 00:00:00
6:00 AM,50.0,48.2,94,30.01,1.9,Calm,Calm,-,N/A,,Mist,0,2012-11-20 00:30:00
6:30 AM,50.0,48.2,94,30.04,1.9,Calm,Calm,-,N/A,,Mist,0,2012-11-20 01:00:00
7:00 AM,48.2,48.2,100,30.04,1.6,Calm,Calm,-,N/A,,Mostly Cloudy,0,2012-11-20 01:30:00
7:30 AM,48.2,48.2,100,30.04,1.2,Calm,Calm,-,N/A,,Mostly Cloudy,0,2012-11-20 02:00:00
8:00 AM,48.2,48.2,100,30.04,1.6,Calm,Calm,-,N/A,,Mostly Cloudy,0,2012-11-20 02:30:00
8:30 AM,52,49,85,30.07,1,Calm,Calm,,,,Mist,,2012-11-20 03:00:00
8:30 AM,51.8,48.2,88,30.06,1.6,Calm,Calm,-,N/A,,Mostly Cloudy,0,2012-11-20 03:00:00
9:00 AM,55.4,50.0,82,30.06,1.6,Variable,2.3,-,N/A,,Mostly Cloudy,0,2012-11-20 03:30:00
9:30 AM,57.2,46.4,67,30.06,1.6,Variable,2.3,-,N/A,,Mostly Cloudy,0,2012-11-20 04:00:00
10:00 AM,60.8,50.0,68,30.09,1.6,Variable,2.3,-,N/A,,Haze,0,2012-11-20 04:30:00
11:00 AM,68.0,51.8,56,30.09,2.5,NNW,4.6,-,N/A,,Haze,330,2012-11-20 05:30:00
11:30 AM,69.8,53.6,56,30.06,2.5,NW,5.8,-,N/A,,Haze,320,2012-11-20 06:00:00
12:30 PM,73.4,50.0,44,30.06,3.7,NW,9.2,-,N/A,,Partly Cloudy,310,2012-11-20 07:00:00
1:00 PM,75.2,50.0,41,30.04,3.7,WNW,10.4,-,N/A,,Partly Cloudy,290,2012-11-20 07:30:00
1:30 PM,75.2,50.0,41,30.04,3.7,WNW,10.4,-,N/A,,Partly Cloudy,290,2012-11-20 08:00:00
2:00 PM,77.0,50.0,39,30.01,3.7,WNW,9.2,-,N/A,,Partly Cloudy,290,2012-11-20 08:30:00
2:30 PM,78,46,21,29.98,2,NW,6.9,,,,Scattered Clouds,320,2012-11-20 09:00:00
2:30 PM,77.0,50.0,39,30.01,3.7,NW,6.9,-,N/A,,Partly Cloudy,310,2012-11-20 09:00:00
3:00 PM,78.8,46.4,32,30.01,3.7,WNW,5.8,-,N/A,,Partly Cloudy,290,2012-11-20 09:30:00
3:30 PM,80.6,48.2,32,29.98,3.7,NW,5.8,-,N/A,,Partly Cloudy,310,2012-11-20 10:00:00
4:00 PM,78.8,48.2,34,29.98,3.7,West,5.8,-,N/A,,Partly Cloudy,280,2012-11-20 10:30:00
4:30 PM,78.8,48.2,34,29.98,3.7,West,5.8,-,N/A,,Partly Cloudy,280,2012-11-20 11:00:00
5:00 PM,77.0,48.2,36,29.98,3.7,Variable,1.2,-,N/A,,Partly Cloudy,0,2012-11-20 11:30:00
5:30 PM,76,47,25,29.94,2,Calm,Calm,,,,Scattered Clouds,,2012-11-20 12:00:00
5:30 PM,75.2,46.4,36,29.95,3.7,Calm,Calm,-,N/A,,Partly Cloudy,0,2012-11-20 12:00:00
6:30 PM,69.8,50.0,49,29.98,3.1,Calm,Calm,-,N/A,,Haze,0,2012-11-20 13:00:00
7:00 PM,68.0,51.8,56,29.98,3.1,Calm,Calm,-,N/A,,Haze,0,2012-11-20 13:30:00
7:30 PM,68.0,51.8,56,29.98,3.1,Calm,Calm,-,N/A,,Haze,0,2012-11-20 14:00:00
8:00 PM,68.0,51.8,56,29.98,3.1,Calm,Calm,-,N/A,,Haze,0,2012-11-20 14:30:00
8:30 PM,65,50,48,29.97,2,Calm,Calm,,,,Haze,,2012-11-20 15:00:00
8:30 PM,66.2,50.0,56,29.98,2.5,Calm,Calm,-,N/A,,Haze,0,2012-11-20 15:00:00
9:00 PM,64.4,50.0,59,29.98,2.5,Calm,Calm,-,N/A,,Haze,0,2012-11-20 15:30:00
9:30 PM,64.4,50.0,59,29.98,2.5,Calm,Calm,-,N/A,,Haze,0,2012-11-20 16:00:00
10:30 PM,59.0,53.6,82,29.98,1.9,Calm,Calm,-,N/A,,Mist,0,2012-11-20 17:00:00
11:00 PM,59.0,53.6,82,29.98,1.9,Calm,Calm,-,N/A,,Mist,0,2012-11-20 17:30:00
11:30 PM,59.0,53.6,82,29.98,1.9,Calm,Calm,-,N/A,,Mist,0,2012-11-20 18:00:00